Location: Bosdarros
(43.2167°N, 0.3667°W)
Time: 07:24:13
(UTC+00:00)

Meteor 2-8 Rocket - Pass Details

Date: 22 April 2021
Orbit: 936 x 959 km, 82.5° (Epoch: 07 May)

Event Time Altitude Azimuth Distance (km) Brightness Sun altitude
Exits shadow 21:02:56 33° 167° (SSE) 1,539 5.1 -21.2°
Maximum altitude 21:05:45 68° 95° (E) 1,020 4.4 -21.6°
Drops below altitude 10° 21:11:50 10° 13° (NNE) 2,681 7.2 -22.4°
Sets 21:14:20 0° 11° (NNE) 3,626 8.0 -22.7°
